Hourly Data Report for September 10, 2017

All times are specified in Local Standard Time (LST). Add 1 hour to adjust for Daylight Saving Time where and when it is observed.

ST. JOHN'S INTL A
NEWFOUNDLAND

47°37'07.000" N
52°45'09.000" W
140.50 m
8403505
71801
YYT

Download Data

Hourly Data (September 2017)
Hourly Data Report for September 10, 2017
Temp Definition
°C
Dew Point Temp Definition
°C
Rel Hum Definition
%
Wind Dir Definition
10's deg

Wind Spd Definition
km/h
Visibility Definition
km
Stn Press Definition
kPa
Hmdx Definition


Wind Chill Definition


Weather Definition


TIME
00:30 Legend Double Dagger 12.6 12.6 100 4 10 16.1 100.39     Moderate Rain
01:30 Legend Double Dagger 12.6 12.6 100 2 9 0.8 100.38     Rain,Fog
02:30 Legend Double Dagger 12.5 12.5 100 36 15 0.8 100.42     Rain,Fog
03:30 Legend Double Dagger 12.3 12.3 100 2 18 0.8 100.37     Rain,Fog
04:30 Legend Double Dagger 12.1 12.1 100 4 18 0.6 100.34     Rain,Fog
05:30 Legend Double Dagger 12.0 12.0 100 5 18 0.6 100.37     Rain,Fog
06:30 Legend Double Dagger 12.0 12.0 100 4 21 0.2 100.36     Drizzle,Fog
07:30 Legend Double Dagger 12.1 12.1 100 5 19 0.4 100.34     Rain,Fog
08:30 Legend Double Dagger 12.2 12.2 100 6 22 1.0 100.33     Rain,Fog
09:30 Legend Double Dagger 12.0 12.0 100 4 17 1.2 100.35     Rain,Fog
10:30 Legend Double Dagger 11.9 11.9 100 5 21 1.2 100.31     Moderate Rain,Fog
11:30 Legend Double Dagger 12.2 12.2 100 6 24 1.6 100.18     Moderate Rain,Fog
12:30 Legend Double Dagger 12.1 12.1 100 6 22 0.8 100.08     Drizzle,Fog
13:30 Legend Double Dagger 11.9 11.9 100 5 18 0.6 100.02     Drizzle,Fog
14:30 Legend Double Dagger 11.9 11.9 100 4 19 1.6 100.07     Rain,Fog
15:30 Legend Double Dagger 11.8 11.8 100 4 22 0.4 99.98     Drizzle,Fog
16:30 Legend Double Dagger 11.5 11.5 100 4 28 0.4 99.89     Fog
17:30 Legend Double Dagger 11.2 11.2 100 4 19 3.2 99.90     Fog
18:30 Legend Double Dagger 11.4 11.4 100 4 15 1.6 99.94     Drizzle,Fog
19:30 Legend Double Dagger 11.1 11.1 100 3 20 2.4 99.89     Rain,Fog
20:30 Legend Double Dagger 11.1 11.1 100 4 19 3.2 99.82     Moderate Rain,Fog
21:30 Legend Double Dagger 10.8 10.8 100 3 23 3.2 99.78     Rain,Fog
22:30 Legend Double Dagger 10.7 10.7 100 4 24 1.2 99.67     Rain,Fog
23:30 Legend Double Dagger 10.7 10.7 100 5 26 0.8 99.62     Rain,Fog

Notes on Data Quality.

Legend

  • E = Estimated
  • M = Missing
  • NA = Not Available
  • ‡ = Partner data that is not subject to review by the National Climate Archives
Date modified: